Dewpoint
54 54 54 53 54 54 54 54 54 54 54 52 50 50 49 48 47 47 46 45 44 42 41 39 37 35 34 34 34 34 33 32 34 36 38 39 36 33 31 30 29 29 28 27 27 27 26 25 26 27 27 24 23 22 22 22 22 22 22 22 22 22 22 21 22 22 23 23 23
54 53 53 53 54 53 53 53 52 52 52 51 50 49 48 48 48 47 46 44 44 42 41 39 36 35 34 34 35 34 33 32 34 36 37 37 33 31 29 31 29 29 30 30 27 27 26 25 26 27 27 25 23 21 20 21 21 21 21 21 21 22 22 21 22 22 23 23 24
53 53 53 53 53 53 52 52 51 51 50 50 50 49 49 49 50 50 47 44 44 42 39 37 35 34 34 34 34 34 33 32 34 35 35 32 32 31 31 33 32 29 27 27 28 29 29 27 29 32 33 33 24 21 22 22 22 21 20 21 22 22 22 21 22 23 23 23 24
52 52 52 52 52 52 52 51 51 50 50 49 50 50 50 50 50 50 48 44 42 40 37 35 33 33 33 33 34 33 32 32 33 33 32 30 29 29 31 32 28 26 27 30 31 31 29 28 33 36 34 28 24 23 23 23 22 22 22 23 23 22 22 22 23 23 23 23 23
52 52 52 52 52 51 51 51 50 50 50 51 50 50 50 49 49 47 45 44 39 36 35 34 32 32 32 33 33 32 32 33 33 32 30 28 28 30 32 29 25 27 30 33 31 29 29 31 35 35 34 32 33 28 23 21 21 22 23 23 23 23 23 23 23 24 24 24 24
51 51 51 51 51 51 51 50 50 50 50 50 50 49 48 48 46 44 42 44 38 36 36 34 33 32 33 33 32 32 32 32 31 29 27 26 28 30 31 26 25 27 30 30 29 28 28 33 34 34 33 34 28 23 21 21 21 21 22 23 23 23 23 23 24 25 25 24 23
51 51 51 51 50 50 50 50 49 49 49 49 48 47 47 46 45 43 41 41 40 38 35 33 32 32 32 31 31 31 31 31 29 27 26 27 28 28 27 25 27 29 30 29 30 31 31 32 33 32 29 25 23 21 20 21 21 21 21 22 24 24 23 23 25 25 24 23 23
50 50 50 50 50 50 50 48 48 48 48 47 46 46 46 45 44 43 43 44 43 38 35 36 32 31 30 29 28 28 28 27 27 27 27 27 26 26 25 26 27 29 29 29 31 31 31 32 32 29 25 24 23 21 20 19 19 19 20 21 23 24 23 23 24 24 23 22 22
50 50 50 50 50 50 49 47 47 47 46 46 45 45 45 45 44 44 44 44 44 41 39 37 32 30 29 27 27 26 26 25 25 25 26 26 26 26 27 27 27 27 28 29 30 30 29 29 27 24 23 25 23 21 19 18 18 19 20 22 23 24 24 23 24 24 24 23 22
49 49 49 48 48 47 46 46 46 46 46 45 45 45 45 45 45 45 45 45 43 42 39 32 30 30 28 26 25 24 24 23 23 23 23 24 23 23 24 24 24 25 27 27 29 29 27 25 22 21 20 20 19 18 18 18 18 19 21 23 23 23 23 24 24 24 24 23 23
48 48 47 47 46 45 45 45 45 46 46 45 45 45 45 45 45 45 45 44 43 42 39 34 32 30 27 24 24 24 24 23 23 22 22 22 23 22 22 22 23 23 24 25 27 26 24 23 20 19 18 18 18 18 18 18 18 19 21 23 22 22 22 23 23 24 24 24 23
47 47 46 45 45 44 45 45 45 45 45 45 45 45 45 45 45 45 45 44 44 42 39 36 33 30 27 24 24 24 24 23 22 21 21 21 21 21 21 21 21 21 21 22 23 23 22 20 19 18 18 18 18 18 18 18 18 19 20 21 21 21 21 21 22 23 23 23 23
46 45 45 44 43 44 45 45 45 45 45 45 45 45 45 45 45 45 45 45 44 42 40 36 32 28 25 23 24 24 23 22 21 21 21 20 20 21 21 20 20 19 19 21 24 24 22 19 18 18 18 18 19 19 19 19 19 19 19 20 20 20 20 20 20 21 22 22 22
45 44 43 42 43 44 44 45 45 45 45 45 45 45 45 45 45 45 45 45 43 41 39 35 31 27 25 24 23 23 23 22 21 20 20 20 20 20 20 19 19 19 21 23 24 23 22 20 18 19 19 19 19 20 20 19 20 20 19 19 19 20 20 20 19 19 20 21 21
43 42 42 42 43 43 44 44 45 45 45 45 45 45 45 45 45 45 45 43 41 39 36 32 28 26 24 23 23 23 22 21 20 20 19 19 19 19 19 19 19 20 21 22 23 23 20 19 19 19 19 19 19 19 20 20 20 20 20 19 19 19 19 19 19 19 19 20 20
41 41 42 42 43 43 44 44 45 45 45 45 45 45 45 45 44 43 42 40 38 34 31 28 26 25 24 23 23 22 21 20 19 19 19 19 19 19 19 19 19 19 20 20 22 21 19 20 19 19 19 19 19 19 19 19 19 19 19 19 19 19 19 19 19 19 19 19 20
41 41 42 43 43 44 44 44 45 45 45 45 44 44 44 43 41 40 38 36 32 29 27 26 25 24 24 24 23 21 20 19 18 18 19 19 19 19 19 18 19 19 18 18 19 19 19 20 20 19 19 19 19 19 19 19 19 19 19 19 19 19 19 21 21 20 19 19 21
42 42 43 43 44 44 44 44 44 44 44 43 43 43 43 41 38 36 34 31 28 27 26 25 24 24 23 23 23 22 21 19 19 19 19 18 19 19 18 18 18 18 18 18 18 18 18 18 19 19 19 19 19 19 19 19 19 19 19 19 19 19 20 21 22 21 21 20 22
42 43 43 44 44 44 44 43 43 42 42 42 41 41 40 38 35 33 31 29 27 25 25 24 24 23 23 23 23 23 23 20 19 19 18 18 18 18 18 18 18 18 18 18 17 17 18 18 18 19 20 20 20 20 20 20 20 20 21 21 21 21 21 21 22 22 21 21 22
44 44 44 45 44 44 43 42 41 41 41 41 40 39 38 36 33 31 29 27 26 25 24 24 24 23 23 23 23 23 22 21 19 18 18 18 18 18 17 17 17 17 18 18 18 19 19 20 21 22 23 23 23 23 23 23 23 23 23 23 23 23 23 23 22 22 22 21 21
45 45 44 44 43 42 41 41 41 41 40 40 39 38 36 34 31 29 27 27 26 25 25 25 24 24 24 23 23 22 21 21 19 18 18 18 18 18 17 17 18 19 20 22 23 24 24 25 25 26 26 26 26 25 25 25 25 24 24 24 24 24 23 23 23 23 22 22 22
44 44 43 43 42 41 41 41 41 40 40 39 37 36 33 31 29 28 27 27 26 27 27 27 27 26 25 25 24 23 22 22 20 19 19 19 19 19 19 20 21 23 24 26 27 27 27 27 27 27 27 27 27 27 27 27 26 25 25 25 25 24 24 24 23 23 23 23 22
43 42 41 41 41 41 41 41 40 39 38 37 36 33 32 29 28 27 27 27 27 28 29 29 28 27 26 25 25 24 23 22 20 19 19 20 20 21 21 23 24 25 26 27 27 28 28 28 28 28 27 27 27 27 27 27 27 26 26 25 25 25 24 24 24 24 23 23 23
41 41 41 41 40 40 40 40 39 38 37 35 33 32 30 27 27 26 27 27 27 28 29 28 28 27 27 25 25 23 22 20 19 19 19 20 21 21 23 24 25 26 27 28 29 30 30 29 29 29 28 28 27 27 27 27 26 26 26 25 25 25 24 24 24 23 23 23 23
39 39 39 39 39 39 39 38 37 36 35 32 31 29 27 26 26 26 27 27 28 28 29 28 28 27 26 24 23 22 20 19 18 18 19 20 21 23 25 27 27 28 30 32 33 34 34 32 31 30 29 28 28 27 27 27 26 26 25 25 25 25 24 24 24 23 23 23 23
37 37 37 37 37 37 37 36 35 33 31 29 28 27 26 26 26 27 27 27 28 28 28 28 27 26 24 22 21 20 20 20 19 18 19 19 21 23 25 27 28 30 32 34 35 35 35 35 34 32 29 27 27 27 27 27 27 26 25 25 25 24 24 24 23 23 23 23 23
36 35 35 36 36 35 35 33 32 30 28 27 27 27 26 26 26 27 27 27 28 28 27 27 26 25 24 21 20 21 21 22 20 19 19 20 22 24 26 27 29 31 33 35 35 35 35 35 35 34 31 27 27 27 27 26 26 26 25 25 24 24 24 23 23 24 24 23 23
36 36 35 35 34 33 32 31 29 28 27 27 26 26 26 26 26 26 26 27 27 26 25 25 24 24 23 24 23 23 23 23 23 22 22 23 24 25 27 28 30 32 34 36 35 35 34 34 34 34 33 30 27 26 26 26 26 25 25 25 24 24 24 24 23 23 23 23 23
36 36 35 34 32 31 30 28 28 27 27 26 25 25 25 25 25 25 25 25 24 24 24 24 25 26 27 28 28 27 26 26 25 26 26 27 26 27 27 29 31 33 35 35 34 32 32 31 32 33 33 32 28 26 26 25 25 25 25 25 24 24 24 23 23 23 23 22 22
36 35 34 32 31 30 28 27 27 26 25 24 24 24 24 24 24 24 24 23 24 25 26 26 28 29 30 30 30 29 28 27 28 29 29 27 27 28 29 30 32 33 34 33 32 32 31 31 31 32 32 32 28 26 25 25 25 25 24 24 24 23 23 23 23 22 21 21 21
35 34 32 31 30 28 27 26 25 25 24 24 24 24 25 25 26 27 27 27 27 27 27 28 29 29 29 29 30 29 28 27 27 28 29 29 28 28 29 30 32 33 33 33 33 32 32 31 31 31 32 32 28 25 24 25 24 24 24 23 23 23 23 22 21 21 20 20 20
34 33 32 31 30 28 27 27 26 26 26 26 27 27 28 29 31 31 31 29 29 28 28 28 29 28 28 28 28 27 27 28 28 28 29 31 30 30 31 32 33 34 34 34 33 32 31 30 30 31 31 31 28 25 24 24 24 23 23 23 23 22 21 21 20 19 19 18 18
33 32 32 31 31 30 30 29 29 29 29 29 29 29 30 31 32 31 30 30 30 30 31 31 30 31 31 31 31 31 31 32 32 32 32 32 32 33 33 34 34 35 35 34 32 31 30 29 30 31 31 30 27 25 23 23 23 23 23 22 22 21 21 20 19 19 18 18 17
33 33 32 32 32 32 32 31 31 31 31 30 30 30 30 31 30 30 30 31 32 32 32 32 32 32 33 33 33 33 33 33 33 33 33 33 33 33 33 33 32 33 33 32 31 30 29 29 30 30 31 30 27 24 23 23 23 22 22 21 21 20 20 19 18 18 17 17 16
34 33 33 32 32 32 32 32 31 31 31 30 30 31 31 31 31 31 32 33 33 33 33 34 34 34 34 34 34 34 33 33 33 32 32 32 32 32 31 30 30 31 32 31 30 29 29 29 30 30 30 29 25 23 23 23 22 22 21 20 20 20 19 18 18 18 17 17 17
34 33 33 33 32 32 32 32 32 31 31 31 31 32 32 32 33 33 34 34 34 34 34 34 34 34 34 34 34 34 34 33 32 32 32 31 30 28 27 27 28 30 31 30 29 28 28 28 30 30 30 27 24 23 22 22 21 20 19 19 19 19 18 18 18 18 18 18 19
34 34 34 34 34 33 33 32 32 32 32 32 32 32 33 33 34 34 34 35 34 34 34 34 34 34 34 33 33 33 33 32 31 29 28 27 26 25 25 25 26 27 29 29 28 27 27 27 29 30 29 25 22 21 21 20 20 19 19 18 18 18 18 17 18 18 18 19 21
35 35 34 34 34 34 34 34 33 33 33 33 33 34 34 34 34 35 35 35 34 34 34 34 33 33 33 32 32 30 29 27 26 24 23 22 23 23 23 23 22 25 28 29 28 27 27 27 29 30 28 24 22 21 20 19 19 18 18 18 18 17 17 17 18 18 19 20 25
35 35 35 34 34 34 34 34 34 33 33 33 34 34 34 34 34 35 35 35 34 34 33 32 32 31 30 29 26 24 23 22 22 21 19 19 21 22 22 20 20 23 27 28 27 27 26 26 28 30 29 26 21 20 19 19 18 18 18 17 17 17 17 17 18 18 19 20 26
35 35 35 34 34 34 34 34 33 33 33 33 33 34 34 34 34 35 35 34 33 32 31 29 27 26 25 24 21 20 19 20 20 20 20 20 23 24 23 18 18 21 25 27 26 26 25 25 28 30 30 25 21 19 19 18 18 18 17 16 16 17 17 18 18 18 18 19 23
35 35 34 34 34 34 33 33 33 33 33 33 33 34 34 34 34 33 32 31 29 27 25 24 23 22 22 22 20 19 18 19 20 21 23 25 26 26 23 17 17 19 22 25 26 25 24 25 27 30 30 25 20 18 18 18 18 18 17 16 16 16 17 17 17 18 18 18 18